Regional Weather Roundup
Issued by NWS

Home | Current Version | Previous Version | Graphics & Text | Print | Product List | Glossary On
Versions: 1 2 3 4 5 6 7 8 9 10 11 12 13 14 15 16 17 18 19 20 21 22 23 24 25 26 27 28 29 30 31 32 33 34 35 36 37 38 39 40 41 42 43 44 45 46 47 48 49 50
326
ASUS43 KBIS 110910
RWRND

NORTH DAKOTA REGIONAL WEATHER ROUNDUP
NATIONAL WEATHER SERVICE BISMARCK ND
300 AM CST SUN DEC 11 2016

NOTE: "FAIR" INDICATES FEW OR NO CLOUDS BELOW 12,000 FEET WITH NO
SIGNIFICANT WEATHER AND/OR OBSTRUCTIONS TO VISIBILITY.


NDZ001>003-009>011-017-111000-
NORTHWEST NORTH DAKOTA

CITY           SKY/WX    TMP DP  RH WIND       PRES   REMARKS
WILLISTON      CLOUDY     0  -7  72 SE5       29.95R WCI -10
MINOT          LGT SNOW  -2  -7  79 E10       29.98R VSB 3/4 WCI -19
MINOT AFB      LGT SNOW  -3  -8  81 E10       29.98R WCI -20
$$

NDZ018>021-031>035-040>046-111000-
SOUTHWEST NORTH DAKOTA

CITY           SKY/WX    TMP DP  RH WIND       PRES   REMARKS
BISMARCK       LGT SNOW   0  -4  83 E3        29.99R FOG
DICKINSON      CLOUDY     0  -5  79 S8        29.83R WCI -14
GARRISON         N/A     -3  -8  79 E12       29.94R WCI -21
HETTINGER ARPT CLOUDY     0  -4  83 CALM      29.85R
$$

NDZ004>008-012>016-024-026-027-054-111000-
NORTHEAST NORTH DAKOTA

CITY           SKY/WX    TMP DP  RH WIND       PRES   REMARKS
GRAND FORKS    CLOUDY     0  -7  72 NE7       30.13F WCI -13
GRND FRKS AFB  CLOUDY    -4  -9  77 NE5       30.12F WCI -15
DEVILS LAKE    LGT SNOW   0  -6  78 E12       30.04F FOG     WCI -18
$$

NDZ022-023-025-028>030-036>039-047>053-111000-
SOUTHEAST NORTH DAKOTA

CITY           SKY/WX    TMP DP  RH WIND       PRES   REMARKS
FARGO          LGT SNOW  10   4  76 NE10      30.04F WCI  -4
JAMESTOWN      LGT SNOW   1  -3  83 NE8       29.99S VSB 1   WCI -13
$$





USA.gov is the U.S. government's official web portal to all federal, state and local government web resources and services.